EW7067 Weather Reports


Display with metric or nautical units.
time (UTC)temp
F
wind
direction
speed
MPH
gust
MPH
rain 1hr
in
rain 24hr
in
rain mn
in
humidity
%
barometer
mb
20260502222209 63 350 6.0 13.0 0.00 0.00 0.00 45 967.2
20260502221710 62 5 4.0 10.0 0.00 0.00 0.00 46 967.0
20260502220710 62 158 0.0 2.0 0.00 0.00 0.00 56 967.0
20260502220210 62 160 0.0 0.0 0.00 0.00 0.00 53 966.9
20260502215710 62 160 0.0 0.0 0.00 0.00 0.00 54 966.8
20260502215210 62 160 0.0 0.0 0.00 0.00 0.00 54 966.6
20260502214709 62 160 0.0 2.0 0.00 0.00 0.00 51 966.6
20260502214205 62 160 0.0 2.0 0.00 0.00 0.00 51 966.5
20260502213707 62 239 1.0 6.0 0.00 0.00 0.00 52 966.4
20260502213206 63 239 3.0 7.0 0.00 0.00 0.00 49 966.4
20260502212205 63 190 1.0 7.0 0.00 0.00 0.00 52 966.2
20260502211705 63 67 1.0 5.0 0.00 0.00 0.00 53 966.2
20260502211206 63 151 2.0 8.0 0.00 0.00 0.00 50 966.3
20260502210205 63 250 1.0 5.0 0.00 0.00 0.00 51 966.2
20260502205706 64 153 1.0 5.0 0.00 0.00 0.00 51 966.2
20260502205205 64 145 1.0 5.0 0.00 0.00 0.00 48 966.2
20260502204706 64 200 1.0 4.0 0.00 0.00 0.00 52 966.2
20260502204206 64 120 1.0 5.0 0.00 0.00 0.00 50 966.2
20260502203706 64 88 1.0 5.0 0.00 0.00 0.00 50 966.1
20260502203206 64 134 1.0 7.0 0.00 0.00 0.00 51 966.2
20260502202706 64 147 1.0 7.0 0.00 0.00 0.00 49 966.2
20260502202205 63 144 2.0 9.0 0.00 0.00 0.00 49 966.2
20260502201205 63 129 2.0 6.0 0.00 0.00 0.00 52 966.5
20260502200706 63 134 2.0 6.0 0.00 0.00 0.00 50 966.5
20260502200206 63 173 1.0 6.0 0.00 0.00 0.00 53 966.5
20260502195706 63 119 1.0 4.0 0.00 0.00 0.00 50 966.5
20260502195203 63 323 2.0 7.0 0.00 0.00 0.00 49 966.7
20260502194703 63 138 2.0 8.0 0.00 0.00 0.00 49 966.8
20260502194208 63 171 1.0 8.0 0.00 0.00 0.00 48 966.8
20260502193702 63 173 1.0 8.0 0.00 0.00 0.00 51 966.9
20260502193201 62 128 2.0 9.0 0.00 0.00 0.00 51 967.1
20260502192659 62 64 2.0 9.0 0.00 0.00 0.00 49 967.1
20260502192200 62 67 2.0 6.0 0.00 0.00 0.00 52 967.1
20260502191659 62 167 1.0 7.0 0.00 0.00 0.00 50 967.2
20260502191200 62 161 1.0 7.0 0.00 0.00 0.00 49 967.2
20260502190153 61 172 3.0 12.0 0.00 0.00 0.00 51 967.3
20260502185647 61 57 2.0 12.0 0.00 0.00 0.00 51 967.5
20260502185147 61 57 2.0 7.0 0.00 0.00 0.00 51 967.7
20260502184645 61 106 2.0 7.0 0.00 0.00 0.00 50 967.7
20260502184144 61 81 3.0 8.0 0.00 0.00 0.00 51 967.7
20260502183644 61 69 2.0 8.0 0.00 0.00 0.00 51 967.7
20260502183139 60 82 2.0 8.0 0.00 0.00 0.00 53 967.7
20260502182138 60 185 1.0 7.0 0.00 0.00 0.00 53 967.7
20260502181637 60 48 2.0 7.0 0.00 0.00 0.00 53 967.7
20260502181137 60 136 1.0 6.0 0.00 0.00 0.00 54 967.8
20260502180637 59 126 1.0 6.0 0.00 0.00 0.00 53 967.8
20260502180135 59 180 2.0 6.0 0.00 0.00 0.00 53 967.9
20260502164039 56 83 2.0 5.0 0.00 0.00 0.00 59 969.2
20260502163532 55 72 1.0 4.0 0.00 0.00 0.00 61 969.3
20260502163025 55 64 1.0 5.0 0.00 0.00 0.00 60 969.4
20260502162520 55 63 2.0 5.0 0.00 0.00 0.00 59 969.5
20260502162014 55 68 3.0 10.0 0.00 0.00 0.00 60 969.6
20260502161507 55 63 3.0 10.0 0.00 0.00 0.00 61 969.7
20260502161001 55 12 3.0 5.0 0.00 0.00 0.00 61 969.8
20260502160455 55 63 3.0 6.0 0.00 0.00 0.00 61 969.8
20260502151902 54 61 2.0 8.0 0.00 0.00 0.00 61 969.8
20260502151356 54 60 1.0 5.0 0.00 0.00 0.00 60 969.7
20260502150850 54 55 2.0 4.0 0.00 0.00 0.00 60 969.7
20260502150343 54 74 2.0 4.0 0.00 0.00 0.00 60 969.8
20260502130625 53 36 2.0 5.0 0.00 0.00 0.00 65 968.9
20260502123549 53 47 0.0 3.0 0.00 0.00 0.00 75 968.7
20260502123045 53 22 0.0 2.0 0.00 0.00 0.00 77 968.7
20260502122537 53 9 0.0 2.0 0.00 0.00 0.00 77 968.8
20260502122031 53 5 1.0 4.0 0.00 0.00 0.00 77 969.0
20260502121019 53 33 0.0 3.0 0.00 0.00 0.00 80 968.7
20260502115502 52 31 0.0 2.0 0.00 0.00 0.00 81 968.3
20260502114457 52 24 0.0 0.0 0.00 0.00 0.00 81 968.6
20260502113956 52 24 0.0 0.0 0.00 0.00 0.00 81 968.8
20260502113452 52 24 0.0 0.0 0.00 0.00 0.00 81 968.6
20260502111951 52 24 0.0 0.0 0.00 0.00 0.00 81 968.5
20260502111449 52 23 0.0 3.0 0.00 0.00 0.00 81 968.4
20260502110949 52 23 1.0 5.0 0.00 0.00 0.00 79 968.4
20260502110449 52 24 0.0 5.0 0.00 0.00 0.00 79 968.4
20260502105446 52 28 0.0 0.0 0.00 0.00 0.00 79 968.5
20260502104949 52 28 0.0 0.0 0.00 0.00 0.00 80 968.3
20260502104448 52 28 0.0 2.0 0.00 0.00 0.00 80 968.2
20260502103948 52 28 0.0 2.0 0.00 0.00 0.00 79 968.2
20260502103443 52 26 0.0 2.0 0.00 0.00 0.00 80 968.1
20260502102943 52 26 0.0 3.0 0.00 0.00 0.00 79 968.1
20260502102444 52 26 1.0 5.0 0.00 0.00 0.00 80 968.1
20260502101940 52 9 2.0 5.0 0.00 0.00 0.00 80 968.2
20260502101441 52 70 2.0 5.0 0.00 0.00 0.00 81 968.0
20260502100941 52 56 1.0 3.0 0.00 0.00 0.00 82 968.0
20260502100440 52 56 0.0 3.0 0.00 0.00 0.00 83 968.0
20260502091440 51 31 0.0 3.0 0.00 0.00 0.00 88 968.6
20260502090441 51 123 0.0 2.0 0.00 0.00 0.00 91 968.5
20260502071331 51 193 0.0 0.0 0.00 0.00 0.00 93 967.6
20260502070824 51 193 0.0 0.0 0.00 0.00 0.00 93 967.5
20260502070318 51 193 0.0 0.0 0.00 0.00 0.00 93 967.4
20260502065306 50 193 0.0 0.0 0.00 0.00 0.00 93 967.6
20260502064800 50 193 0.0 0.0 0.00 0.00 0.00 93 967.6
20260502063746 50 193 0.0 0.0 0.00 0.00 0.00 93 967.5
20260502062736 50 193 0.0 0.0 0.00 0.00 0.00 93 967.6
20260502062231 51 193 0.0 0.0 0.00 0.00 0.00 93 967.6
20260502061218 51 193 0.0 1.0 0.00 0.00 0.00 93 967.8
20260502060713 51 202 0.0 1.0 0.00 0.00 0.00 93 967.9
20260502060206 50 202 0.0 0.0 0.00 0.00 0.00 93 968.0
20260502055700 50 202 0.0 0.0 0.00 0.00 0.00 93 968.1
20260502055154 50 202 0.0 0.0 0.00 0.00 0.00 93 968.0
20260502054649 51 202 0.0 0.0 0.00 0.00 0.00 93 968.2
20260502054144 51 202 0.0 0.0 0.00 0.00 0.00 93 968.2
20260502053637 51 202 0.0 0.0 0.00 0.00 0.00 93 968.1
20260502053131 51 202 0.0 0.0 0.00 0.00 0.00 93 968.0
20260502052624 51 202 0.0 0.0 0.00 0.00 0.00 93 968.1
20260502052118 51 202 0.0 0.0 0.00 0.00 0.00 93 968.2
20260502051612 51 202 0.0 0.0 0.00 0.00 0.00 93 968.1
20260502051104 51 202 0.0 0.0 0.00 0.00 0.00 93 967.9
20260502050557 51 202 0.0 0.0 0.00 0.00 0.00 93 967.9
20260502050052 51 202 0.0 0.0 0.00 0.00 0.00 93 968.0
20260502045546 51 202 0.0 0.0 0.00 0.00 0.00 92 967.9
20260502045044 51 202 0.0 0.0 0.00 0.00 0.00 92 967.9
20260502044530 51 202 0.0 0.0 0.00 0.00 0.00 92 967.9
20260502044024 51 202 0.0 0.0 0.00 0.00 0.00 92 967.9
20260502043517 51 203 0.0 0.0 0.00 0.00 0.00 92 967.9
20260502043012 51 203 0.0 0.0 0.00 0.00 0.00 92 968.1
20260502042506 51 203 0.0 0.0 0.00 0.00 0.00 92 968.1
20260502042000 51 203 0.0 0.0 0.00 0.00 0.00 92 968.1
20260502041454 52 203 0.0 0.0 0.00 0.00 0.00 92 968.0
20260502040948 52 203 0.0 0.0 0.00 0.00 0.00 91 968.0
20260502040442 52 203 0.0 0.0 0.00 0.00 0.00 91 968.1
20260502035935 52 203 0.0 0.0 0.00 0.00 0.00 91 968.0
20260502035429 52 203 0.0 0.0 0.00 0.00 0.00 91 968.1
20260502034924 52 203 0.0 0.0 0.00 0.00 0.00 90 968.2
20260502034417 52 203 0.0 0.0 0.00 0.00 0.00 90 968.1
20260502033911 52 203 0.0 0.0 0.00 0.00 0.00 90 968.2
20260502033407 52 203 0.0 0.0 0.00 0.00 0.00 89 968.2
20260502032354 53 203 0.0 0.0 0.00 0.00 0.00 89 968.4
20260502031847 53 203 0.0 0.0 0.00 0.00 0.00 88 968.4
20260502031341 53 203 0.0 0.0 0.00 0.00 0.00 88 968.4
20260502030835 53 203 0.0 0.0 0.00 0.00 0.00 88 968.3
20260502030329 53 203 0.0 0.0 0.00 0.00 0.00 87 968.5
20260502025823 54 203 0.0 0.0 0.00 0.00 0.00 87 968.6
20260502025318 54 203 0.0 0.0 0.00 0.00 0.00 87 968.6
20260502024305 54 203 0.0 0.0 0.00 0.00 0.00 86 968.6
20260502023759 55 203 0.0 0.0 0.00 0.00 0.00 85 968.5
20260502023254 55 203 0.0 0.0 0.00 0.00 0.00 84 968.4
20260502022747 56 203 0.0 3.0 0.00 0.00 0.00 83 968.4
20260502022243 56 203 0.0 3.0 0.00 0.00 0.00 82 968.3
20260502021230 56 203 1.0 4.0 0.00 0.00 0.00 81 968.4
20260502020218 56 184 1.0 8.0 0.00 0.00 0.00 81 968.3
20260502015712 56 167 1.0 8.0 0.00 0.00 0.00 81 968.2
20260502014700 56 223 0.0 0.0 0.00 0.00 0.00 81 968.0
20260502014154 56 223 0.0 0.0 0.00 0.00 0.00 81 967.9
20260502013142 56 223 0.0 0.0 0.00 0.00 0.00 81 967.9
20260502012129 56 223 0.0 0.0 0.00 0.00 0.00 80 968.0
20260502011624 57 223 0.0 0.0 0.00 0.00 0.00 80 968.0
20260502011118 57 223 0.0 0.0 0.00 0.00 0.00 79 967.9
20260502010612 57 223 0.0 0.0 0.00 0.00 0.00 79 967.8
20260502010107 57 223 0.0 0.0 0.00 0.00 0.00 78 967.9
20260502005600 57 223 0.0 0.0 0.00 0.00 0.00 77 967.8
20260502005053 58 223 0.0 0.0 0.00 0.00 0.00 77 967.8
20260502004547 58 223 0.0 0.0 0.00 0.00 0.00 76 967.6
20260502004043 58 223 0.0 0.0 0.00 0.00 0.00 76 967.6
20260502003537 58 223 0.0 0.0 0.00 0.00 0.00 76 967.5
20260502003029 59 223 0.0 0.0 0.00 0.00 0.00 75 967.5
20260502002524 59 223 0.0 0.0 0.00 0.00 0.00 74 967.3
20260502001512 60 223 0.0 0.0 0.00 0.00 0.00 72 967.0
20260502001006 60 223 0.0 2.0 0.00 0.00 0.00 70 966.8
20260501235953 61 223 0.0 4.0 0.00 0.00 0.00 68 966.9
20260501235448 61 223 0.0 4.0 0.00 0.00 0.00 68 966.9
20260501234942 62 132 0.0 4.0 0.00 0.00 0.00 68 966.7
20260501233929 62 132 2.0 6.0 0.00 0.00 0.00 66 966.5
20260501233424 62 200 2.0 6.0 0.00 0.00 0.00 65 966.4
20260501232918 63 189 1.0 6.0 0.00 0.00 0.00 64 966.4
20260501232412 63 158 1.0 4.0 0.00 0.00 0.00 63 966.6
20260501231906 64 179 1.0 5.0 0.00 0.00 0.00 62 966.6
20260501231400 64 177 2.0 10.0 0.00 0.00 0.00 62 966.6
20260501230853 65 188 2.0 10.0 0.00 0.00 0.00 61 966.7
20260501230347 65 191 1.0 6.0 0.00 0.00 0.00 60 966.7
20260501225842 65 184 0.0 6.0 0.00 0.00 0.00 61 966.8
20260501225336 65 222 1.0 4.0 0.00 0.00 0.00 62 966.8
20260501224324 65 204 3.0 12.0 0.00 0.00 0.00 62 966.8
20260501223818 65 189 4.0 12.0 0.00 0.00 0.00 61 966.9
20260501222806 65 238 3.0 10.0 0.00 0.00 0.00 60 966.8